KB7YYZ Weather Reports


Display with metric or nautical units.
time (UTC)temp
F
wind
direction
speed
MPH
gust
MPH
rain 1hr
in
rain 24hr
in
rain mn
in
humidity
%
barometer
mb
20260508192046 93 303 3.0 3.0 0.00 0.00 0.00 16 1007.1
20260508191030 93 301 3.0 3.0 0.00 0.00 0.00 16 1007.2
20260508190019 92 282 2.0 2.0 0.00 0.00 0.00 17 1007.5
20260508185020 91 24 2.0 2.0 0.00 0.00 0.00 18 1007.5
20260508184037 91 290 2.0 2.0 0.00 0.00 0.00 18
20260508183044 90 301 1.0 2.0 0.00 0.00 0.00 18
20260508182026 89 168 2.0 2.0 0.00 0.00 0.00 18 1008.0
20260508181022 89 247 1.0 1.0 0.00 0.00 0.00 19 1008.1
20260508180028 89 202 1.0 1.0 0.00 0.00 0.00 19 1008.3
20260508175033 88 262 1.0 1.0 0.00 0.00 0.00 20 1008.4
20260508174040 87 322 1.0 1.0 0.00 0.00 0.00 20 1008.4
20260508173025 87 208 1.0 1.0 0.00 0.00 0.00 20 1008.5
20260508172041 86 214 1.0 1.0 0.00 0.00 0.00 20 1008.6
20260508171045 86 340 1.0 1.0 0.00 0.00 0.00 21 1008.8
20260508170032 85 256 1.0 1.0 0.00 0.00 0.00 22 1008.8
20260508165030 85 183 1.0 1.0 0.00 0.00 0.00 22 1008.9
20260508164027 84 301 1.0 1.0 0.00 0.00 0.00 23 1008.9
20260508163026 83 216 1.0 1.0 0.00 0.00 0.00 23 1008.9
20260508162043 82 320 1.0 1.0 0.00 0.00 0.00 23 1009.0
20260508161041 81 233 1.0 1.0 0.00 0.00 0.00 24 1009.0
20260508160023 80 222 1.0 1.0 0.00 0.00 0.00 25 1009.0
20260508155101 79 231 1.0 1.0 0.00 0.00 0.00 26 1009.1
20260508154046 79 151 1.0 1.0 0.00 0.00 0.00 27 1009.1
20260508153019 78 193 1.0 1.0 0.00 0.00 0.00 27 1009.2
20260508152025 77 217 1.0 1.0 0.00 0.00 0.00 28 1009.1
20260508151053 76 141 1.0 1.0 0.00 0.00 0.00 29 1009.1
20260508150057 75 195 1.0 1.0 0.00 0.00 0.00 30 1009.2
20260508145209 74 200 1.0 1.0 0.00 0.00 0.00 31 1009.2
20260508144054 73 184 1.0 1.0 0.00 0.00 0.00 32 1009.2
20260508143022 72 143 1.0 1.0 0.00 0.00 0.00 33 1009.1
20260508142028 71 201 0.0 1.0 0.00 0.00 0.00 34 1009.1
20260508141033 70 164 0.0 1.0 0.00 0.00 0.00 35 1009.0
20260508140026 69 0.0 0.0 0.00 0.00 0.00 38 1009.0
20260508135037 68 0.0 0.0 0.00 0.00 0.00 40 1009.0
20260508134019 67 0.0 0.0 0.00 0.00 0.00 41 1009.0
20260508133045 66 0.0 0.0 0.00 0.00 0.00 42 1008.9
20260508132033 65 0.0 0.0 0.00 0.00 0.00 42 1008.9
20260508131022 64 0.0 0.0 0.00 0.00 0.00 42 1008.7
20260508130047 64 0.0 0.0 0.00 0.00 0.00 41 1008.7
20260508125104 64 0.0 0.0 0.00 0.00 0.00 41 1008.5
20260508124049 65 0.0 0.0 0.00 0.00 0.00 41 1008.4
20260508123020 65 0.0 0.0 0.00 0.00 0.00 40 1008.3
20260508122019 65 0.0 0.0 0.00 0.00 0.00 40 1008.2
20260508121034 66 0.0 0.0 0.00 0.00 0.00 39 1008.2
20260508120042 66 0.0 0.0 0.00 0.00 0.00 39 1008.1
20260508115019 66 0.0 0.0 0.00 0.00 0.00 38 1008.0
20260508114026 67 0.0 0.0 0.00 0.00 0.00 37 1008.0
20260508113033 67 0.0 0.0 0.00 0.00 0.00 37 1007.9
20260508112031 67 0.0 0.0 0.00 0.00 0.00 37 1007.9
20260508111058 67 0.0 0.0 0.00 0.00 0.00 37 1007.7
20260508110025 67 0.0 0.0 0.00 0.00 0.00 37 1007.6
20260508105023 68 0.0 0.0 0.00 0.00 0.00 36 1007.6
20260508104049 68 0.0 0.0 0.00 0.00 0.00 35 1007.6
20260508103028 68 0.0 0.0 0.00 0.00 0.00 35 1007.6
20260508102043 69 0.0 0.0 0.00 0.00 0.00 35 1007.6
20260508101036 69 0.0 0.0 0.00 0.00 0.00 34 1007.5
20260508100020 69 0.0 0.0 0.00 0.00 0.00 34 1007.5
20260508095046 69 0.0 0.0 0.00 0.00 0.00 34 1007.5
20260508094025 70 0.0 0.0 0.00 0.00 0.00 33 1007.4
20260508093028 70 0.0 0.0 0.00 0.00 0.00 33 1007.4
20260508092025 70 0.0 0.0 0.00 0.00 0.00 33 1007.4
20260508091025 70 0.0 0.0 0.00 0.00 0.00 33 1007.4
20260508090023 70 0.0 0.0 0.00 0.00 0.00 32 1007.6
20260508085022 71 0.0 0.0 0.00 0.00 0.00 32 1007.5
20260508084057 71 0.0 0.0 0.00 0.00 0.00 31 1007.7
20260508083101 71 0.0 0.0 0.00 0.00 0.00 31 1007.7
20260508082027 72 0.0 0.0 0.00 0.00 0.00 30 1007.7
20260508081020 72 0.0 0.0 0.00 0.00 0.00 30 1008.0
20260508080026 72 0.0 0.0 0.00 0.00 0.00 30 1008.1
20260508075034 73 0.0 0.0 0.00 0.00 0.00 29 1008.0
20260508074038 73 0.0 0.0 0.00 0.00 0.00 29 1008.2
20260508073024 73 0.0 0.0 0.00 0.00 0.00 28 1008.1
20260508072044 74 0.0 0.0 0.00 0.00 0.00 26 1008.1
20260508071023 75 0.0 0.0 0.00 0.00 0.00 25 1008.1
20260508070031 76 0.0 0.0 0.00 0.00 0.00 24 1008.1
20260508065055 76 0.0 0.0 0.00 0.00 0.00 24 1008.0
20260508064021 76 0.0 0.0 0.00 0.00 0.00 24 1008.2
20260508063036 77 0.0 0.0 0.00 0.00 0.00 23 1008.2
20260508062020 77 0.0 0.0 0.00 0.00 0.00 23 1008.2
20260508061027 77 0.0 0.0 0.00 0.00 0.00 23
20260508060029 77 0.0 0.0 0.00 0.00 0.00 22 1008.3
20260508055023 78 53 0.0 0.0 0.00 0.00 0.00 22 1008.3
20260508054046 78 0.0 0.0 0.00 0.00 0.00 22 1008.3
20260508053023 78 0.0 0.0 0.00 0.00 0.00 22 1008.2
20260508052024 79 0.0 0.0 0.00 0.00 0.00 22 1008.1
20260508051029 79 0.0 0.0 0.00 0.00 0.00 21 1008.1
20260508050035 80 108 0.0 0.0 0.00 0.00 0.00 21 1008.0
20260508045037 80 0.0 0.0 0.00 0.00 0.00 21 1007.7
20260508044040 80 125 0.0 0.0 0.00 0.00 0.00 21 1007.6
20260508043041 80 52 0.0 1.0 0.00 0.00 0.00 21 1007.5
20260508042026 80 0.0 0.0 0.00 0.00 0.00 21 1007.5
20260508041033 81 0.0 0.0 0.00 0.00 0.00 20 1007.3
20260508040046 82 106 0.0 0.0 0.00 0.00 0.00 20 1007.2
20260508035046 82 128 0.0 1.0 0.00 0.00 0.00 19 1007.0
20260508034039 83 0.0 0.0 0.00 0.00 0.00 18 1006.8
20260508033024 83 320 0.0 1.0 0.00 0.00 0.00 17 1006.5
20260508032029 84 246 1.0 1.0 0.00 0.00 0.00 16 1006.3
20260508031023 84 214 2.0 2.0 0.00 0.00 0.00 16 1006.1
20260508025028 85 243 3.0 3.0 0.00 0.00 0.00 14 1005.7
20260508024020 86 237 1.0 1.0 0.00 0.00 0.00 14 1005.4
20260508023050 86 241 1.0 1.0 0.00 0.00 0.00 13 1005.1
20260508022019 87 271 1.0 1.0 0.00 0.00 0.00 13 1004.9
20260508021026 87 278 1.0 1.0 0.00 0.00 0.00 13 1004.8
20260508020044 87 254 2.0 2.0 0.00 0.00 0.00 13 1004.5
20260508015022 88 261 2.0 2.0 0.00 0.00 0.00 13 1004.5
20260508014020 88 283 3.0 3.0 0.00 0.00 0.00 13 1004.3
20260508013030 89 281 3.0 3.0 0.00 0.00 0.00 13 1004.3
20260508012035 89 282 3.0 3.0 0.00 0.00 0.00 13 1004.2
20260508011042 89 291 2.0 2.0 0.00 0.00 0.00 13 1004.1
20260508010040 90 263 3.0 3.0 0.00 0.00 0.00 13 1004.0
20260508005021 90 312 2.0 2.0 0.00 0.00 0.00 13 1003.9
20260508004027 90 293 3.0 3.0 0.00 0.00 0.00 13 1003.8
20260508003033 91 292 3.0 3.0 0.00 0.00 0.00 13 1003.6
20260508002040 91 277 3.0 3.0 0.00 0.00 0.00 13 1003.7
20260508001039 92 306 3.0 3.0 0.00 0.00 0.00 13 1003.7
20260508000058 92 287 2.0 161.0 0.00 0.00 0.00 13 1003.7
20260507235025 92 350 2.0 3.0 0.00 0.00 0.00 14 1003.6
20260507234030 92 264 2.0 2.0 0.00 0.00 0.00 14 1003.6
20260507233038 92 266 3.0 3.0 0.00 0.00 0.00 14 1003.8
20260507232035 92 293 2.0 3.0 0.00 0.00 0.00 14 1003.8
20260507230040 92 216 3.0 3.0 0.00 0.00 0.00 14 1004.0
20260507225024 92 250 2.0 3.0 0.00 0.00 0.00 14 1004.0
20260507224020 92 307 2.0 2.0 0.00 0.00 0.00 14 1004.1
20260507223024 92 354 3.0 3.0 0.00 0.00 0.00 14 1004.2
20260507222043 91 325 3.0 3.0 0.00 0.00 0.00 14 1004.2
20260507221021 91 2 2.0 2.0 0.00 0.00 0.00 14 1004.4
20260507220105 91 332 2.0 2.0 0.00 0.00 0.00 14 1004.6
20260507215030 92 185 2.0 2.0 0.00 0.00 0.00 14 1004.7
20260507214037 92 7 2.0 2.0 0.00 0.00 0.00 14 1004.8
20260507213037 93 316 2.0 3.0 0.00 0.00 0.00 14 1005.0
20260507212038 92 300 2.0 2.0 0.00 0.00 0.00 14 1005.1
20260507211022 92 247 2.0 2.0 0.00 0.00 0.00 14 1005.2
20260507210027 92 249 2.0 3.0 0.00 0.00 0.00 14 1005.4
20260507205033 92 305 3.0 3.0 0.00 0.00 0.00 14 1005.6
20260507204039 92 241 3.0 161.0 0.00 0.00 0.00 13 1005.6
20260507203117 91 296 2.0 2.0 0.00 0.00 0.00 14 1005.6
20260507202037 90 223 1.0 2.0 0.00 0.00 0.00 13 1005.7
20260507201026 91 328 2.0 2.0 0.00 0.00 0.00 14 1005.9
20260507200030 91 250 2.0 2.0 0.00 0.00 0.00 14 1006.1
20260507195038 90 258 2.0 2.0 0.00 0.00 0.00 14 1006.4
20260507194023 90 281 2.0 2.0 0.00 0.00 0.00 15 1006.5
20260507193036 89 307 1.0 1.0 0.00 0.00 0.00 14 1006.6